Weather History for KHVN - September, 2012

Change the Weather History Date:

Saturday, September 22, 2012

  Actual Average (KBDR) Record (KBDR)
Temperature  
Mean Temperature 62 °F 64 °F  
Max Temperature 73 °F 72 °F 89 °F (1970)
Min Temperature 51 °F 56 °F 42 °F (1997)
Degree Days  
Heating Degree Days 3 3  
Month to date heating degree days 30  
Since 1 July heating degree days 34  
Cooling Degree Days 0 2  
Month to date cooling degree days 87  
Year to date cooling degree days 805  
Growing Degree Days 12 (Base 50)    
Moisture  
Dew Point 58 °F    
Average Humidity 81    
Maximum Humidity 92    
Minimum Humidity 66    
Precipitation  
Precipitation 0.02 in 0.11 in 1.14 in (1979)
Month to date precipitation 2.51  
Year to date precipitation 31.41  
Snow  
Snow 0.00 in 0.00 in 0.00 in (2002)
Month to date snowfall 0.0  
Since 1 July snowfall 0.0  
Snow Depth -    
Sea Level Pressure  
Sea Level Pressure 29.92 in    
Wind  
Wind Speed 4 mph (SE)    
Max Wind Speed 15 mph    
Max Gust Speed 23 mph    
Visibility 10 miles    
Events Rain    
T = Trace of Precipitation, MM = Missing Value Source: NWS Daily Summary

Daily Weather History Graph

Daily Weather History Graph

Search for Another Location

Airport or City:

Trip Planner

Search our weather history database for the weather conditions in past years. The results will help you decide how hot, cold, wet, or windy it might be!

Date:

Astronomy

Sep. 22, 2012 Rise Set
Actual Time 6:39 AM EDT 6:47 PM EDT
Civil Twilight 6:11 AM EDT 7:15 PM EDT
Nautical Twilight 5:39 AM EDT 7:47 PM EDT
Astronomical Twilight 5:06 AM EDT 8:20 PM EDT
Moon 1:58 PM EDT (9/22) 11:46 PM EDT (9/22)
Length of Visible Light 13h 03m
Length of Day
12h 08m
Waxing Crescent, 48% of the Moon is Illuminated
Sep 22
Waxing Crescent
Sep 22
First Quarter
Sep 29
Full
Oct 8
Last Quarter
Oct 15
New

Hourly Weather History & Observations

Time (EDT) Temp. Dew Point Humidity Pressure Visibility Wind Dir Wind Speed Gust Speed Precip Events Conditions
12:53 AM 59.0 °F 54.0 °F 83% 30.01 in 10.0 mi Calm Calm - N/A   Overcast
1:50 AM 57.2 °F 53.6 °F 88% 30.01 in 10.0 mi Calm Calm - N/A   Scattered Clouds
1:53 AM 57.9 °F 54.0 °F 87% 30.01 in 10.0 mi Calm Calm - N/A   Partly Cloudy
2:53 AM 54.0 °F 51.1 °F 90% 30.00 in 10.0 mi NNE 3.5 mph - N/A   Clear
3:53 AM 53.1 °F 50.0 °F 89% 29.99 in 10.0 mi Calm Calm - N/A   Clear
4:53 AM 51.1 °F 48.0 °F 89% 29.99 in 10.0 mi Calm Calm - N/A   Clear
5:53 AM 51.1 °F 48.9 °F 92% 29.99 in 10.0 mi Calm Calm - N/A   Clear
6:53 AM 51.1 °F 48.9 °F 92% 30.01 in 10.0 mi Calm Calm - N/A   Clear
7:53 AM 55.0 °F 51.1 °F 86% 30.01 in 10.0 mi Calm Calm - N/A   Clear
8:53 AM 57.0 °F 52.0 °F 83% 30.00 in 10.0 mi ESE 4.6 mph - N/A   Scattered Clouds
9:53 AM 59.0 °F 54.0 °F 83% 29.98 in 10.0 mi East 3.5 mph - N/A   Scattered Clouds
10:53 AM 63.0 °F 55.9 °F 78% 29.96 in 10.0 mi Variable 4.6 mph - N/A   Mostly Cloudy
11:37 AM 66.2 °F 57.2 °F 73% 29.94 in 10.0 mi SE 6.9 mph - N/A   Mostly Cloudy
11:53 AM 66.0 °F 57.9 °F 75% 29.94 in 10.0 mi SE 9.2 mph 18.4 mph N/A   Mostly Cloudy
12:53 PM 68.0 °F 57.9 °F 70% 29.91 in 10.0 mi SE 10.4 mph - N/A   Partly Cloudy
1:53 PM 69.1 °F 60.1 °F 73% 29.89 in 10.0 mi East 11.5 mph - N/A   Partly Cloudy
2:53 PM 72.0 °F 60.1 °F 66% 29.88 in 10.0 mi SSE 12.7 mph - N/A   Mostly Cloudy
3:53 PM 72.0 °F 61.0 °F 68% 29.87 in 10.0 mi SSE 8.1 mph - N/A   Overcast
4:53 PM 72.0 °F 62.1 °F 71% 29.86 in 10.0 mi SSE 9.2 mph - N/A   Overcast
5:53 PM 71.1 °F 64.0 °F 78% 29.86 in 10.0 mi SSE 10.4 mph - N/A   Overcast
6:53 PM 72.0 °F 64.9 °F 78% 29.84 in 10.0 mi SSE 9.2 mph - N/A   Overcast
7:53 PM 72.0 °F 66.9 °F 84% 29.84 in 10.0 mi South 12.7 mph - N/A   Overcast
8:53 PM 72.0 °F 66.9 °F 84% 29.83 in 10.0 mi South 10.4 mph - N/A   Overcast
9:20 PM 73.4 °F 66.2 °F 78% 29.82 in 10.0 mi South 12.7 mph - N/A   Overcast
9:53 PM 73.0 °F 66.9 °F 81% 29.82 in 10.0 mi SSW 15.0 mph 23.0 mph N/A   Overcast
10:53 PM 73.0 °F 66.9 °F 81% 29.82 in 10.0 mi SSW 10.4 mph 19.6 mph N/A   Mostly Cloudy
11:42 PM 64.4 °F 60.8 °F 88% 29.83 in 10.0 mi North 5.8 mph - 0.02 in   Overcast
11:53 PM 64.0 °F 59.0 °F 84% 29.83 in 10.0 mi NNW 4.6 mph - 0.02 in Rain Light Rain